カタログに戻る

COSMOS 1035

運用中軍事LEO
NORAD 11044·PAYLOAD·🇷🇺 Russia

打ち上げ Oct 4, 1978 から Plesetsk Cosmodrome

Loading…

次のパス (今後24時間)

TLE

最新Source: Space-Track

元期: Sep 14, 2026, 03:52 UTC

1 11044U 78091B   26257.16114302 -.00000002  00000-0  81806-4 0  9995
2 11044  74.0386 331.3692 0048430 127.3385 256.8647 12.55707597197794

AllMySatでCOSMOS 1035をリアルタイム追跡

Download on the App Store